Regional Weather Roundup
Issued by NWS

Home | Current Version | Previous Version | Graphics & Text | Print | Product List | Glossary On
Versions: 1 2 3 4 5 6 7 8 9 10 11 12 13 14 15 16 17 18 19 20 21 22 23 24 25 26 27 28 29 30 31 32 33 34 35 36 37 38 39 40 41 42 43 44 45 46 47 48 49 50
000
ASUS43 KFSD 082302
RWRSD

WEATHER ROUNDUP FOR SOUTH DAKOTA
NATIONAL WEATHER SERVICE SIOUX FALLS SD
500 PM CST MON FEB 08 2016

NOTE: "FAIR" INDICATES FEW OR NO CLOUDS BELOW 12,000 FEET WITH NO
SIGNIFICANT WEATHER AND/OR OBSTRUCTIONS TO VISIBILITY.


SDZ001>005-009-010-012>017-090000-
NORTHWEST AND NORTH CENTRAL SOUTH DAKOTA

CITY           SKY/WX    TMP DP  RH WIND       PRES   REMARKS
BUFFALO          N/A     39  10  30 NW16      30.19S
FAITH            N/A     36   9  32 NW21      30.22S
MOBRIDGE       MOCLDY    35  19  52 N17G26    30.18S WCI  25
$$

SDZ012>016-024>037-041>051-057-063-072>074-090000-
SOUTHWEST AND SOUTH CENTRAL SOUTH DAKOTA

CITY           SKY/WX    TMP DP  RH WIND       PRES   REMARKS
RAPID CTY ARPT CLOUDY    43  13  29 N21G33    30.24S
PIERRE         CLOUDY    37  16  42 N18       30.21F
CUSTER         CLOUDY    38  21  50 N10G31    30.22R
ELLSWORTH AFB  CLOUDY    42  13  29 N17G30    30.23S
PHILIP         MOCLDY    38  17  42 NW13      30.26R
PINE RIDGE     CLOUDY    39   9  29 N9        30.27S
WINNER         FAIR      35  18  49 NW20      30.21F WCI  24
$$

SDZ004>011-016>023-039-040-090000-
NORTHEAST SOUTH DAKOTA

CITY           SKY/WX    TMP DP  RH WIND       PRES   REMARKS
ABERDEEN       PTCLDY    30  12  47 N17       30.17S WCI  18
WATERTOWN      CLOUDY    21  11  65 N26G32    30.09R WCI   4
BROOKINGS      CLOUDY    21  13  71 N24G33    30.07R WCI   4
SISSETON         N/A     18  13  80 N22       30.14S WCI   1
$$

SDZ017-020-022-023-036>040-048>070-090000-
SOUTHEAST SOUTH DAKOTA

CITY           SKY/WX    TMP DP  RH WIND       PRES   REMARKS
SIOUX FALLS    MOCLDY    25  14  63 N20       30.09S WCI  11
HURON          CLOUDY    31  17  56 N20       30.15S WCI  19
MITCHELL       CLOUDY    33  18  53 NW21G26   30.16S WCI  21
YANKTON        PTCLDY    32  16  51 NW23G33   30.13S WCI  19
$$

ABBREVIATIONS USED IN REMARKS
   TC - TEMPERATURE IN CELSIUS
  WCI - WIND CHILL INDEX
   HX - HEAT INDEX
  VSB - VISIBILITY




USA.gov is the U.S. government's official web portal to all federal, state and local government web resources and services.